Theta_e
313 313 312 313 312 312 312 312 312 311 312 313 314 314 313 312 311 310 310 309 308 308 307 307 307 306 306 306 305 305 304 303 300 302 303 304 304 305 305 305 305 304 304
313 313 313 313 313 312 312 312 312 312 312 314 314 314 313 313 312 310 310 309 308 308 307 307 307 306 306 305 305 305 304 304 302 301 302 303 304 305 305 304 304 304 304
313 313 313 313 313 313 313 312 312 312 313 314 315 314 314 313 311 310 309 309 308 307 307 307 307 306 306 305 304 304 304 305 303 301 301 303 304 305 305 305 304 303 304
313 313 313 313 313 313 313 313 312 312 313 315 315 314 314 312 311 310 309 308 308 307 307 307 307 306 305 305 305 306 307 307 307 305 303 304 304 305 305 304 304 303 303
313 313 314 314 314 313 313 312 312 312 313 315 315 314 314 312 311 310 309 309 308 308 308 307 307 306 305 306 306 307 307 308 308 307 304 303 303 304 304 304 302 303 304
313 313 314 314 313 313 312 312 312 312 313 314 315 314 314 312 311 310 309 309 309 308 308 307 306 305 305 306 306 306 307 308 307 305 304 302 302 303 303 303 303 300 301
313 313 313 313 313 312 312 312 312 312 313 314 314 314 313 312 311 311 310 309 309 308 307 306 305 305 305 305 305 306 306 305 304 304 303 302 303 304 303 302 303 302 301
312 313 313 313 313 313 312 312 312 312 313 314 314 314 313 312 311 310 310 309 308 307 306 305 304 304 304 305 306 305 305 305 303 301 302 303 303 301 300 300 298 296 295
311 312 312 313 312 312 312 312 312 312 312 314 314 314 312 312 311 310 308 308 307 307 305 303 303 303 305 305 304 303 303 302 301 301 302 301 300 298 297 295 294 292 291
311 312 313 312 311 311 312 311 312 312 313 314 313 313 312 312 310 308 307 307 307 306 304 303 303 303 303 303 303 302 300 299 301 300 299 298 295 294 293 291 291 291 290
313 312 312 312 312 312 312 311 312 311 312 314 313 312 312 311 309 307 307 307 307 305 304 303 302 302 302 301 299 299 300 302 300 297 295 293 291 291 290 290 290 291 290
311 312 312 312 312 311 311 311 311 311 311 312 312 311 311 309 308 307 307 307 307 305 304 303 302 301 300 297 298 300 301 300 296 294 292 291 290 289 290 289 289 290 289
311 311 311 312 311 311 311 310 310 310 310 309 310 310 309 308 307 306 307 307 306 304 304 303 301 299 296 297 298 297 295 294 292 292 291 290 289 289 289 288 289 289 288
311 311 311 311 310 310 310 310 309 309 309 308 308 308 308 307 306 306 307 307 305 304 303 301 299 296 296 296 295 294 293 292 292 291 290 289 289 289 288 288 288 288 287
312 311 311 310 309 309 309 310 309 310 311 310 310 310 307 305 305 306 306 306 305 303 301 299 297 295 295 294 293 292 292 292 291 290 289 289 289 289 288 288 288 287 286
311 311 310 309 309 308 308 308 309 310 310 311 313 312 308 307 305 305 305 304 303 301 298 297 296 295 294 293 293 292 291 291 291 290 289 289 288 288 288 288 287 287 287
311 311 310 310 309 308 307 306 306 307 309 310 309 307 306 305 304 304 304 303 301 298 297 296 295 294 294 293 292 292 291 291 290 289 288 288 288 288 288 287 286 286 287
312 311 311 310 309 308 307 307 306 305 304 305 305 305 304 303 302 301 301 299 298 297 296 295 294 294 293 292 292 292 291 290 289 288 288 288 287 287 287 286 286 285 286
311 311 310 310 309 308 307 307 307 306 304 304 303 302 302 302 301 300 299 299 298 296 296 295 295 294 294 293 292 291 291 290 289 288 287 287 287 287 287 287 286 286 287
312 311 310 309 308 307 306 305 305 304 303 302 302 302 301 300 300 299 299 298 298 297 297 295 294 295 294 293 292 291 290 290 289 288 287 287 287 287 287 287 286 286 287
311 310 309 308 307 306 305 304 304 303 302 301 302 302 302 301 300 300 299 299 298 298 296 294 294 294 293 293 292 291 290 289 289 288 287 287 287 286 286 286 286 286 286
310 309 307 307 306 305 305 305 303 302 301 300 300 300 301 301 300 300 299 299 298 296 295 294 294 293 293 292 292 291 290 290 289 288 288 287 287 286 286 286 285 286 286
309 307 306 305 305 304 303 302 301 301 300 300 299 299 299 299 299 299 299 298 296 295 295 294 294 293 293 292 292 291 290 290 289 289 288 288 287 286 286 286 285 285 286
307 305 303 302 302 301 301 300 300 300 299 299 299 299 299 299 299 298 297 296 295 295 294 294 294 293 293 292 292 291 290 290 290 289 288 288 287 287 286 286 285 285 286
304 302 300 300 300 299 298 298 298 298 298 298 298 298 298 298 297 297 296 295 295 295 294 294 293 293 293 293 292 292 291 290 290 289 289 288 288 287 286 286 286 286 286
301 300 299 299 298 298 298 297 297 298 298 298 298 298 297 297 296 295 295 295 295 294 293 293 292 292 292 292 292 291 291 291 290 290 289 288 288 287 287 286 286 286 286
Wind_Speed
40 40 39 39 36 34 33 30 27 22 19 16 13 11 10 10 9 10 10 10 11 11 12 13 14 14 15 15 15 16 18 19 13 25 24 30 29 27 25 24 23 23 22
40 39 39 38 35 34 34 31 28 25 21 17 14 13 12 11 11 11 11 11 12 12 12 13 14 13 15 14 15 16 18 19 21 19 23 27 28 26 25 24 24 23 21
39 37 36 37 36 36 35 33 29 27 24 20 17 15 13 12 12 12 12 12 13 13 12 13 13 13 15 15 15 16 16 17 17 21 20 25 25 25 25 25 25 23 19
37 37 37 39 39 38 36 34 31 29 27 23 20 16 14 13 12 12 12 13 13 12 12 12 12 13 15 15 13 13 15 16 17 20 23 24 22 24 23 20 26 27 26
38 39 42 41 40 38 37 36 33 31 29 25 21 18 15 14 13 12 12 13 14 13 12 11 12 13 12 11 12 13 14 16 17 19 19 19 22 19 21 18 24 27 27
39 42 42 40 40 40 38 37 35 33 31 27 25 21 18 16 13 12 13 15 14 14 12 11 12 11 10 10 10 11 11 13 13 13 17 15 17 19 21 22 22 11 4
40 41 42 42 41 42 40 38 38 37 34 32 27 23 21 17 14 14 14 15 15 13 13 12 11 9 9 10 10 10 9 10 10 11 15 17 18 19 20 20 18 17 13
38 39 41 42 43 42 40 41 41 40 39 35 31 26 22 18 16 15 15 16 14 13 13 11 9 8 8 8 9 11 12 13 15 17 17 15 14 14 14 14 15 17 23
33 38 41 43 41 42 42 44 43 42 41 38 33 27 24 20 18 17 17 16 14 13 11 9 8 8 5 7 11 13 15 16 15 12 11 11 15 17 14 18 19 21 12
34 42 46 41 40 41 46 43 44 43 45 40 33 28 25 21 19 19 18 17 15 12 10 8 7 7 8 10 11 14 18 17 12 11 11 13 14 13 13 13 15 17 14
38 38 35 37 41 44 45 42 45 42 41 38 34 28 25 23 21 20 19 19 16 13 10 9 8 9 10 12 14 13 12 10 8 9 13 13 13 14 15 15 15 16 16
29 32 33 37 40 36 39 39 38 38 38 38 33 28 26 23 21 20 20 18 16 13 11 9 9 10 12 12 10 7 7 7 9 12 11 12 15 17 15 16 14 13 16
21 26 30 33 35 35 35 35 32 33 30 31 32 31 29 24 21 20 19 20 17 14 12 9 9 11 10 8 6 5 6 9 9 8 10 12 14 14 16 17 14 16 19
16 21 25 28 31 32 33 33 30 30 27 26 27 27 28 23 22 22 21 21 17 15 12 10 9 9 8 6 6 7 8 7 6 8 12 13 14 16 17 17 19 21 19
13 15 18 22 25 28 30 32 32 36 41 37 36 35 30 26 28 24 24 24 21 16 12 10 10 9 8 8 8 8 8 7 8 10 12 13 16 16 17 17 18 18 13
12 14 16 19 22 25 26 20 23 29 34 35 36 30 25 21 19 21 21 20 18 15 11 10 10 10 10 9 9 8 9 10 10 12 13 13 16 17 18 17 16 14 15
17 16 16 19 21 23 23 22 17 14 20 19 18 19 19 20 17 20 20 19 15 13 11 11 11 9 10 10 10 10 11 10 11 13 13 13 14 17 15 16 14 15 14
19 21 20 21 24 24 24 23 24 23 20 20 16 18 17 16 17 18 19 17 14 14 13 12 12 11 10 10 11 12 12 13 13 13 13 13 13 16 15 13 14 15 15
21 22 22 22 23 25 26 28 29 26 24 26 21 18 17 16 16 18 19 19 18 15 14 14 13 12 11 11 12 13 13 14 15 13 12 13 13 15 15 15 16 17 19
22 25 23 22 22 24 27 27 26 25 24 25 25 25 22 22 23 22 21 18 15 13 12 13 13 13 13 12 14 14 15 15 15 14 14 13 14 15 17 18 17 18 16
21 21 22 22 23 26 27 27 27 26 25 25 24 24 27 28 26 24 22 19 17 15 13 12 11 12 11 12 14 14 15 16 15 16 16 14 15 17 16 16 19 17 16
22 23 23 25 25 26 28 28 27 26 23 23 20 20 21 22 20 20 19 18 15 13 10 10 11 11 10 12 12 13 15 17 17 16 16 17 17 18 17 17 18 18 17
24 26 25 24 26 27 25 25 24 23 23 22 21 21 22 20 18 16 15 13 11 11 10 11 12 11 12 13 13 14 16 17 18 16 17 19 18 19 18 18 18 19 18
26 28 28 27 27 27 26 25 24 23 23 22 22 21 20 18 16 13 11 10 10 9 9 10 11 11 13 12 13 15 16 16 16 18 18 20 21 21 20 19 19 21 23
25 24 22 24 24 24 24 24 24 23 23 22 20 18 17 14 12 10 10 9 9 9 9 8 9 11 11 11 12 14 15 15 16 16 18 20 20 21 22 21 21 21 21
22 22 22 23 22 22 22 20 20 21 21 19 18 16 14 10 10 9 7 8 8 7 6 6 7 9 10 11 12 13 15 16 17 18 19 22 23 23 21 20 20 21 21
Wind_Direction
225 227 229 232 234 238 240 242 243 244 242 240 244 250 258 261 262 265 270 271 274 279 282 283 287 291 291 292 290 285 274 261 250 284 294 309 310 317 322 323 321 318 310
227 228 230 233 234 236 237 239 238 238 235 234 238 246 252 257 260 261 265 268 272 277 284 285 291 296 296 301 299 295 288 282 262 276 295 307 311 317 323 321 324 323 315
228 229 231 233 233 234 236 236 235 233 230 229 234 242 250 254 256 260 263 265 269 274 282 287 295 297 300 304 303 302 300 299 293 277 283 301 309 320 322 323 325 326 326
228 229 230 232 233 235 236 236 233 229 227 226 230 236 243 247 251 253 258 261 264 269 277 283 291 295 299 304 306 307 311 307 303 295 296 300 306 316 317 317 321 324 324
229 229 231 234 236 236 237 236 233 229 226 225 227 230 235 240 244 246 252 257 260 266 272 280 289 292 299 303 303 310 305 301 304 305 304 304 311 318 319 322 317 321 320
229 231 233 235 236 236 235 234 232 229 225 223 224 227 230 236 239 241 247 253 258 264 269 276 283 291 295 298 303 297 295 297 303 306 310 304 306 313 317 318 315 312 311
227 233 234 236 235 235 234 230 229 226 222 222 222 225 228 231 232 234 239 247 254 259 266 273 283 291 298 304 301 300 301 304 310 308 301 310 313 326 325 325 321 305 293
226 228 231 232 234 234 232 230 228 225 222 220 221 225 227 227 228 229 230 240 245 253 263 272 281 292 296 300 307 307 311 313 315 314 315 320 326 333 328 325 324 320 318
223 228 231 232 227 229 230 230 228 223 221 220 221 222 224 225 225 223 225 229 237 248 260 265 274 279 279 292 303 308 310 310 317 316 311 305 303 317 325 327 339 338 323
227 234 238 230 226 225 231 227 228 224 222 219 218 221 224 224 221 221 222 222 230 240 248 248 253 277 275 288 300 303 299 313 317 318 317 316 319 319 325 336 341 337 335
245 241 237 235 234 234 232 226 227 221 219 215 214 215 217 220 219 218 220 219 226 232 237 237 253 269 280 290 293 295 301 297 295 314 322 326 329 331 332 334 329 324 324
251 246 242 240 237 229 228 226 223 215 208 207 207 208 214 216 217 217 218 221 223 230 234 242 261 275 287 293 295 279 258 284 308 316 321 333 335 335 332 331 329 325 321
252 246 243 241 239 232 224 218 209 207 197 194 196 201 209 210 213 214 215 217 219 227 235 249 268 282 283 264 243 271 299 306 309 315 327 327 326 327 327 336 332 334 328
258 253 247 239 233 227 223 219 203 196 193 190 191 201 208 203 206 204 208 208 213 222 229 247 261 267 260 254 258 274 284 292 303 317 309 315 322 327 331 337 334 335 335
269 264 253 243 233 224 220 215 209 215 206 196 201 204 196 199 207 208 205 204 211 216 225 236 248 256 251 253 258 269 283 279 280 300 302 311 315 317 326 334 333 338 334
258 260 254 240 229 221 210 203 210 222 207 208 215 212 206 218 208 203 203 206 208 210 212 228 240 242 244 253 259 268 275 268 275 294 299 303 306 313 319 326 325 323 320
258 253 243 236 227 213 199 185 164 161 194 199 196 193 202 198 194 197 200 199 201 200 218 229 238 247 254 254 258 260 268 279 283 290 294 298 300 312 316 330 319 316 319
260 259 245 232 225 216 201 188 175 161 157 164 175 180 182 187 188 184 183 184 181 206 226 234 239 244 250 256 262 261 270 275 282 295 300 305 303 314 313 325 321 312 311
256 249 243 237 227 219 203 193 185 178 169 170 167 176 181 180 180 181 189 198 200 212 223 235 246 252 257 263 265 266 264 270 279 283 293 297 298 307 302 312 309 312 312
253 250 237 224 212 204 199 187 184 182 178 177 180 180 173 171 179 186 195 202 211 222 233 245 248 249 254 259 263 263 260 262 276 276 281 285 295 300 302 309 309 309 301
239 229 228 215 209 202 193 186 184 182 181 184 189 188 189 190 193 196 200 208 217 226 235 239 240 245 250 256 260 261 260 264 273 276 277 279 294 295 301 301 303 295 300
234 218 211 208 203 198 194 191 187 187 184 181 182 185 192 196 198 202 206 212 219 231 237 243 246 252 261 262 268 267 263 265 271 275 274 275 291 294 298 302 307 300 296
226 213 203 203 201 192 186 185 181 180 180 181 179 177 184 190 190 192 202 211 219 232 239 242 250 256 260 260 264 269 269 271 273 280 273 270 282 289 291 294 303 297 288
221 209 191 186 184 180 176 173 176 176 174 173 174 176 180 185 190 194 205 212 219 228 240 249 252 259 267 271 272 273 276 278 276 275 277 273 284 292 286 292 291 292 286
212 195 180 169 165 164 162 164 165 166 167 169 169 169 170 174 177 190 202 205 220 232 241 249 257 262 272 281 281 280 280 278 276 277 273 267 273 283 282 281 286 288 287
186 176 166 158 153 152 148 147 151 155 155 158 159 160 166 164 184 189 194 212 222 232 249 266 268 276 289 295 291 292 294 290 283 279 274 269 266 270 272 271 276 282 289